Home   Weather   Brno   Past weeks

Flag for Czech Republic Past Weather in Brno, Czech Republic — Yesterday and Last 2 Weeks

Now
9 °F

Fog.


Feels Like: 2 °F
Forecast: 1 / 22 °F
Wind: 3 mph from Northwest

Location: Brno / Turany

Current Time: Jan 19, 2017 at 10:01:43 am

Latest Report: Jan 19, 2017 at 9:00 am


Visibility: 3 mi

Pressure: 30.74 "Hg

Humidity: 81%

Dew Point: 4 °F

Location of BrnoLocation

Past Weather in Brno — Graph

°F

Brno Temperature Yesterday

Maximum temperature yesterday: 28 °F (at 12:00 am)
Minimum temperature yesterday: 17 °F (at 11:00 pm)
Average temperature yesterday: 25 °F

High & Low Weather Summary for the Past Weeks

 TemperatureHumidityPressure
High40 °F (Jan 12, 2:00 pm)96% (Jan 14, 2:00 pm)30.73 "Hg (Jan 14, 2:00 pm)
Low1 °F (Jan 7, 8:00 am)55% (Jan 6, 2:00 pm)29.44 "Hg (Jan 13, 1:00 pm)
Average22 °F75%30.19 "Hg
* Reported Jan 4 8:00 am — Jan 19 8:00 am, Brno, Weather by CustomWeather, © 2017

Note: Actual official high and low records may vary slightly from our data, if they occured in-between our weather recording intervals... More about our weather records

Advertising

Brno Weather History for the Previous 24 Hours

Scroll right to see more
 ConditionsComfort  
Time TempWeatherWind HumidityBarometerVisibility
8:00 am
Thu, Jan 19
10 °FFog.3 mph83%30.73 "Hg3 mi
7:00 am11 °FFog.2 mph84%30.73 "Hg5 mi
6:00 am11 °FFog.1 mph83%30.71 "Hg4 mi
5:00 am9 °FFog.1 mph78%30.72 "Hg4 mi
4:00 am14 °FFog.5 mph84%30.71 "Hg4 mi
3:00 am14 °FFog.5 mph84%30.71 "Hg4 mi
2:00 am16 °FFog.3 mph84%30.70 "Hg4 mi
1:00 am16 °FFog.3 mph83%30.70 "Hg4 mi
12:00 am14 °FFog.1 mph84%30.71 "Hg4 mi
11:00 pm
Wed, Jan 18
17 °FFog.2 mph82%30.71 "Hg4 mi
10:00 pm18 °FFog.5 mph81%30.71 "Hg4 mi
9:00 pm18 °FFog.5 mph81%30.71 "Hg4 mi
8:00 pm18 °FFog.3 mph83%30.70 "Hg5 mi
7:00 pm20 °FFog.7 mph77%30.68 "Hg6 mi
6:00 pm22 °FClear.6 mph74%30.68 "Hg6 mi
5:00 pm23 °FClear.5 mph70%30.67 "Hg6 mi
4:00 pm26 °FSunny.6 mph65%30.65 "Hg6 mi
3:00 pm27 °FPassing clouds.7 mph64%30.64 "Hg6 mi
2:00 pm28 °FPassing clouds.7 mph64%30.64 "Hg6 mi
1:00 pm28 °FPassing clouds.8 mph64%30.64 "Hg6 mi
12:00 pm27 °FPassing clouds.8 mph67%30.65 "Hg7 mi
11:00 am27 °FPassing clouds.8 mph65%30.66 "Hg7 mi
10:00 am27 °FPassing clouds.8 mph65%30.64 "Hg7 mi
Weather by CustomWeather, © 2017

See weather overviewHow to use our weather pages